Regional Weather Roundup
Issued by NWS

Home | Current Version | Previous Version | Text Only | Print | Product List | Glossary Off
Versions: 1 2 3 4 5 6 7 8 9 10 11 12 13 14 15 16 17 18 19 20 21 22 23 24 25 26 27

000
ASUS45 KCYS 230210
RWRWY

WYOMING REGIONAL WEATHER ROUNDUP
NATIONAL WEATHER SERVICE CHEYENNE WY
700 PM MST THU FEB 22 2018

NOTE:  "FAIR" INDICATES FEW OR NO CLOUDS BELOW 12,000 FEET
WITH NO SIGNIFICANT WEATHER AND/OR OBSTRUCTIONS TO VISIBILITY.

WYZ001-230300-
YELLOWSTONE NATIONAL PARK

CITY           SKY/WX    TMP DP  RH WIND       PRES   REMARKS
LK YELLOWSTONE   N/A      1  -2  87 CALM      29.87R
W YELLOWSTONE  NOT AVBL

$$
WYZ002>013-054>058-071-098>099-230300-
NORTHERN WYOMING

CITY           SKY/WX    TMP DP  RH WIND       PRES   REMARKS
JACKSON        MOCLDY    16   5  62 CALM      29.90R
CODY           FAIR       9   2  73 NE6       30.02R WCI  -1
GREYBULL       FAIR       3  -2  79 CALM      30.07R
WORLAND        FAIR       2  -2  83 CALM      30.05R
SHERIDAN       FAIR      11   1  64 S5        30.09R WCI   3
BUFFALO        FAIR      13  -4  46 W3        30.03R
GILLETTE       FAIR       6  -2  69 CALM      30.04R
HULETT         FAIR      16   5  62 MISG      30.06R
NEWCASTLE      FAIR      12   1  62 NW3       30.02S

$$
WYZ014>020-022>026-101>103-230300-
CENTRAL WYOMING

CITY           SKY/WX    TMP DP  RH WIND       PRES   REMARKS
BIG PINEY      CLOUDY    13   9  84 S6        29.91R FOG     WCI   4
PINEDALE       FAIR      10   7  85 CALM      29.91R
DUBOIS           N/A    N/A N/A N/A MISG        N/A
LANDER         FAIR       9   0  67 CALM      29.96R
RIVERTON       FAIR       7  -4  60 N3        29.97R
CASPER         FAIR       3  -2  79 CALM      29.98R
DOUGLAS        FAIR       7   1  76 NW6       30.01R WCI  -3

$$
WYZ021-027>030-104>119-230300-
SOUTHERN WYOMING

CITY           SKY/WX    TMP DP  RH WIND       PRES   REMARKS
EVANSTON       LGT SNOW  13   9  84 E8        29.88R FOG     WCI   2
ROCK SPRINGS   CLOUDY    15   8  73 S3        29.91R
DIXON          FLURRIES  22  19  88 CALM      29.96S
RAWLINS        CLOUDY    14  10  84 CALM      29.93R
SARATOGA       CLOUDY    18  18 100 CALM      29.93R
LARAMIE        MOCLDY    14  12  92 CALM      29.91R
CHEYENNE       FAIR      19  16  88 S3        29.96R
TORRINGTON     FAIR      23  12  62 CALM      30.01R
PINE BLUFFS    CLOUDY    16  12  86 CALM      30.01R

$$




USA.gov is the U.S. government's official web portal to all federal, state and local government web resources and services.